Regional Weather Roundup
Issued by NWS

Home | Current Version | Previous Version | Text Only | Print | Product List | Glossary On
Versions: 1 2 3 4 5 6 7 8 9 10 11 12 13 14 15 16 17 18 19 20 21 22 23 24 25 26 27 28 29 30 31 32 33 34 35 36 37 38 39 40 41 42 43 44 45 46 47 48 49 50
000
ASUS44 KJAN 010703
RWRMS

MISSISSIPPI HOURLY WEATHER ROUNDUP
NATIONAL WEATHER SERVICE JACKSON MS
200 AM CDT TUE SEP 01 2015

NOTE: "FAIR: INDICATES FEW OR NO CLOUDS BELOW 12,000 FEET WITH NO
SIGNIFICANT WEATHER AND/OR OBSTRUCTIONS TO VISIBILITY.

MSZ001>002-007>008-010>013-018>021-025>028-034>036-010800-
NORTHWEST MISSISSIPPI

CITY           SKY/WX    TMP DP  RH WIND       PRES   REMARKS
CLARKSDALE     FAIR      73  72  94 E3        30.06F
CLEVELAND      PTSUNNY   77  72  83 SE5       30.05S
GREENWOOD      PTCLDY    75  67  76 CALM      30.05S
GREENVILLE     CLEAR     74  69  85 E7        30.04S
OLIVE BRANCH   CLEAR     72  72 100 CALM      30.08S
OXFORD         FAIR      68  66  94 SE3       30.09S
TUNICA         MOSUNNY   72  68  88 CALM      30.07S
$$

MSZ003>006-009-014>017-022>024-029>033-037>039-010800-
NORTHEAST MISSISSIPPI

CITY           SKY/WX    TMP DP  RH WIND       PRES   REMARKS
COLUMBUS AFB   CLEAR     67  66  94 CALM      30.06S
CORINTH        FOG       68  66  94 CALM      30.08F VSB 1/2
GOLDN TRIANGLE CLEAR     72  66  83 E3        30.07R
STARKVILLE     FAIR      68  66  94 CALM      30.07S
TUPELO         CLEAR     70  68  93 NE3       30.08S
$$

MSZ040-058-010800-
CENTRAL MISSISSIPPI

CITY           SKY/WX    TMP DP  RH WIND       PRES   REMARKS
JACKSON INTL   CLEAR     76  68  76 CALM      30.05S
JACKSON HAWKNS CLEAR     75  68  78 CALM      30.06S
MERIDIAN KEY   CLEAR     71  69  93 CALM      30.06S
MERIDIAN NAS   CLEAR     71  68  90 S3        30.06F
VICKSBURG      PTCLDY    70  68  93 CALM      30.05R
$$

MSZ059>079-010800-
SOUTH MISSISSIPPI

CITY           SKY/WX    TMP DP  RH WIND       PRES   REMARKS
BROOKHAVEN       N/A     72  68  88 CALM      30.09S
HATTIESBURG    CLEAR     74  69  85 SE3       30.06S
MCCOMB         PTCLDY    72  71  97 CALM      30.07S
NATCHEZ        CLEAR     72  68  88 S3        30.07S
PINE BELT      CLEAR     73  64  73 SW3       30.07S
$$

MSZ080>082-010800-
COASTAL MISSISSIPPI

CITY           SKY/WX    TMP DP  RH WIND       PRES   REMARKS
BILOXI         CLEAR     78  71  79 CALM      30.03F
PASCAGOULA     CLEAR     69  68  96 CALM      30.04F FOG
GULFPORT       CLEAR     72  69  90 NW3       30.04S
$$


USA.gov is the U.S. government's official web portal to all federal, state and local government web resources and services.